Ajaccio, France

3:41 PM CEST on August 16, 2017 (GMT +0200)
Campo Dell' Oro

Weather History for LFKJ - February, 2013

Change the Weather History Date:

Friday, February 8, 2013

  Actual Average Record
Temperature  
Mean Temperature 42 °F -  
Max Temperature 53 °F 56 °F 64 °F (2007)
Min Temperature 31 °F 39 °F 31 °F (2013)
Degree Days  
Heating Degree Days 23    
Moisture  
Dew Point 32 °F    
Average Humidity 71    
Maximum Humidity 93    
Minimum Humidity 47    
Precipitation  
Precipitation 0.00 in 0.09 in - ()
Sea Level Pressure  
Sea Level Pressure 29.73 in    
Wind  
Wind Speed 7 mph ()    
Max Wind Speed 16 mph    
Max Gust Speed -    
Visibility 6.5 miles    
Events      
Averages and records for this station are not official NWS values.
T = Trace of Precipitation, MM = Missing Value Source: Averaged Metar Reports

Daily Weather History Graph

Daily Weather History Graph

Search for Another Location

Airport or City:

Trip Planner

Search our weather history database for the weather conditions in past years. The results will help you decide how hot, cold, wet, or windy it might be!

Date:

Astronomy

Feb. 08, 2013 Rise Set
Actual Time 7:29 AM CET 5:48 PM CET
Civil Twilight 7:00 AM CET 6:18 PM CET
Nautical Twilight 6:27 AM CET 6:50 PM CET
Astronomical Twilight 5:55 AM CET 7:23 PM CET
Moon 5:46 AM CET (2/8) 4:02 PM CET (2/8)
Length of Visible Light 11h 17m
Length of Day
10h 19m
Waning Crescent, 5% of the Moon is Illuminated
Feb 8
Waning Crescent
Feb 10
New
Feb 17
First Quarter
Feb 25
Full
Mar 4
Last Quarter

Hourly Weather History & Observations

Time (CET) Temp. Windchill Dew Point Humidity Pressure Visibility Wind Dir Wind Speed Gust Speed Precip Events Conditions
12:00 AM 37.4 °F 32.1 °F 33.8 °F 87% 29.71 in 6.2 mi NE 6.9 mph - N/A   Mostly Cloudy
12:30 AM 37.4 °F 32.1 °F 32.0 °F 81% 29.71 in 6.2 mi NE 6.9 mph - N/A   Unknown
1:00 AM 36 °F - 32 °F 78% 29.73 in 31 mi NE 6.9 mph - -   Clear
1:00 AM 35.6 °F 29.9 °F 32.0 °F 87% 29.71 in 6.2 mi NE 6.9 mph - N/A   Unknown
1:30 AM 35.6 °F 29.2 °F 32.0 °F 87% 29.71 in 6.2 mi ENE 8.1 mph - N/A   Unknown
2:00 AM 35.6 °F 31.7 °F 32.0 °F 87% 29.71 in 6.2 mi NE 4.6 mph - N/A   Unknown
2:30 AM 35.6 °F 30.7 °F 30.2 °F 81% 29.71 in 6.2 mi NE 5.8 mph - N/A   Unknown
3:00 AM 33.8 °F 27.7 °F 30.2 °F 87% 29.74 in 6.2 mi NE 6.9 mph - N/A   Unknown
3:30 AM 35.6 °F 29.9 °F 32.0 °F 87% 29.71 in 6.2 mi NE 6.9 mph - N/A   Unknown
4:00 AM 35.6 °F 29.9 °F 30.2 °F 81% 29.71 in 6.2 mi NE 6.9 mph - N/A   Unknown
4:30 AM 32.0 °F 25.6 °F 30.2 °F 93% 29.71 in 6.2 mi ENE 6.9 mph - N/A   Unknown
5:00 AM 35.6 °F 31.7 °F 30.2 °F 81% 29.71 in 6.2 mi ENE 4.6 mph - N/A   Unknown
5:30 AM 33.8 °F 30.8 °F 30.2 °F 87% 29.71 in 6.2 mi Variable 3.5 mph - N/A   Unknown
6:00 AM 33.8 °F 28.6 °F 28.4 °F 81% 29.71 in 6.2 mi NE 5.8 mph - N/A   Partly Cloudy
6:30 AM 32.0 °F 24.8 °F 28.4 °F 87% 29.71 in 6.2 mi ENE 8.1 mph - N/A   Partly Cloudy
7:00 AM 32 °F - 29 °F 83% 29.74 in 19 mi NE 9.2 mph - -   Scattered Clouds
7:00 AM 32.0 °F 24.8 °F 28.4 °F 87% 29.71 in 6.2 mi NE 8.1 mph - N/A   Partly Cloudy
7:30 AM 32.0 °F 24.8 °F 28.4 °F 87% 29.71 in 6.2 mi NE 8.1 mph - N/A   Partly Cloudy
8:00 AM 32.0 °F 24.2 °F 28.4 °F 87% 29.74 in 6.2 mi NE 9.2 mph - N/A   Partly Cloudy
8:30 AM 35.6 °F 28.6 °F 30.2 °F 81% 29.74 in 6.2 mi NE 9.2 mph - N/A   Partly Cloudy
9:00 AM 37.4 °F 32.8 °F 32.0 °F 81% 29.74 in 6.2 mi NE 5.8 mph - N/A   Scattered Clouds
9:30 AM 41.0 °F 38.0 °F 32.0 °F 70% 29.74 in 6.2 mi NE 4.6 mph - N/A   Scattered Clouds
10:00 AM 46.4 °F - 32.0 °F 57% 29.74 in 6.2 mi Variable 2.3 mph - N/A   Scattered Clouds
10:30 AM 46.4 °F - 30.2 °F 53% 29.74 in 6.2 mi Variable 1.2 mph - N/A   Scattered Clouds
11:00 AM 50.0 °F - 30.2 °F 47% 29.74 in 6.2 mi Variable 1.2 mph - N/A   Scattered Clouds
11:30 AM 50.0 °F - 35.6 °F 58% 29.74 in 6.2 mi SSW 4.6 mph - N/A   Scattered Clouds
12:00 PM 51.8 °F - 37.4 °F 58% 29.74 in 6.2 mi SSW 4.6 mph - N/A   Scattered Clouds
12:30 PM 51.8 °F - 35.6 °F 54% 29.74 in 6.2 mi WSW 12.7 mph - N/A   Scattered Clouds
12:39 PM 51.8 °F - 33.8 °F 50% 29.71 in 6.2 mi SW 11.5 mph - N/A   Scattered Clouds
1:00 PM 50 °F - 36 °F 47% 29.73 in 25 mi WSW 16.1 mph - -   Mostly Cloudy
1:00 PM 50.0 °F - 35.6 °F 58% 29.71 in 6.2 mi WSW 16.1 mph - N/A   Scattered Clouds
1:30 PM 51.8 °F - 33.8 °F 50% 29.71 in 6.2 mi West 12.7 mph - N/A   Scattered Clouds
2:00 PM 51.8 °F - 33.8 °F 50% 29.71 in 6.2 mi West 16.1 mph - N/A   Scattered Clouds
2:30 PM 50.0 °F - 32.0 °F 50% 29.71 in 6.2 mi West 13.8 mph - N/A   Scattered Clouds
3:00 PM 50.0 °F - 32.0 °F 50% 29.68 in 6.2 mi West 16.1 mph - N/A   Scattered Clouds
3:30 PM 50.0 °F - 30.2 °F 47% 29.68 in 6.2 mi WNW 12.7 mph - N/A   Scattered Clouds
4:00 PM 50.0 °F - 32.0 °F 50% 29.71 in 6.2 mi Variable 5.8 mph - N/A   Scattered Clouds
4:30 PM 46.4 °F 41.5 °F 33.8 °F 62% 29.71 in 6.2 mi East 10.4 mph - N/A   Scattered Clouds
5:00 PM 46.4 °F 41.5 °F 32.0 °F 57% 29.71 in 6.2 mi ENE 10.4 mph - N/A   Scattered Clouds
6:00 PM 44.6 °F 40.7 °F 33.8 °F 66% 29.71 in 6.2 mi NE 6.9 mph - N/A   Scattered Clouds
6:30 PM 42.8 °F 39.3 °F 32.0 °F 66% 29.71 in 6.2 mi NE 5.8 mph - N/A   Scattered Clouds
7:00 PM 43 °F - 33 °F 57% 29.74 in 25 mi NE 6.9 mph - -   Mostly Cloudy
7:00 PM 42.8 °F 38.0 °F 32.0 °F 66% 29.71 in 6.2 mi NE 8.1 mph - N/A   Scattered Clouds
7:30 PM 41.0 °F 38.0 °F 33.8 °F 76% 29.74 in 6.2 mi East 4.6 mph - N/A   Mostly Cloudy
8:00 PM 41.0 °F 38.0 °F 32.0 °F 70% 29.74 in 6.2 mi NNE 4.6 mph - N/A   Mostly Cloudy
8:30 PM 41.0 °F 37.1 °F 32.0 °F 70% 29.74 in 6.2 mi NE 5.8 mph - N/A   Mostly Cloudy
9:00 PM 39.2 °F - 30.2 °F 70% 29.77 in 6.2 mi Variable 2.3 mph - N/A   Scattered Clouds
9:30 PM 37.4 °F - 30.2 °F 75% 29.77 in 6.2 mi Variable 2.3 mph - N/A   Scattered Clouds
10:00 PM 37.4 °F 32.8 °F 30.2 °F 75% 29.77 in 6.2 mi ENE 5.8 mph - N/A   Scattered Clouds
10:30 PM 37.4 °F 31.4 °F 30.2 °F 75% 29.80 in 6.2 mi NNE 8.1 mph - N/A   Scattered Clouds
11:00 PM 35.6 °F 29.9 °F 30.2 °F 81% 29.80 in 6.2 mi NNE 6.9 mph - N/A   Scattered Clouds
11:30 PM 37.4 °F 31.4 °F 30.2 °F 75% 29.80 in 6.2 mi ENE 8.1 mph - N/A   Scattered Clouds